Regional Weather Roundup
Issued by NWS Charleston, SC

Current Version | Previous Version | Text Only | Print | Product List | Glossary Off
Versions: 1 2 3 4 5 6 7 8 9 10 11 12 13 14 15 16 17 18 19 20 21 22 23 24 25 26 27 28 29 30 31 32 33 34 35 36 37 38 39 40 41 42 43 44 45 46 47 48 49 50

000
ASUS42 KCHS 251812
RWRCHS

REGIONAL WEATHER ROUNDUP
NATIONAL WEATHER SERVICE CHARLESTON SC
200 PM EDT SAT APR 25 2015

NOTE: "FAIR" INDICATES FEW OR NO CLOUDS BELOW 12,000 FEET WITH NO
SIGNIFICANT WEATHER AND/OR OBSTRUCTIONS TO VISIBILITY.

NOT ALL STATIONS ARE QUALITY CONTROLLED BY THE NATIONAL
WEATHER SERVICE. USE DATA WITH CAUTION...ESPECIALLY
DEWPOINT OBSERVATIONS.

SCZ027-030-031-034>040-042>050-251900-
...SOUTHEAST SOUTH CAROLINA...

CITY           SKY/WX    TMP DP  RH WIND       PRES   REMARKS
N CHARLESTON   CLOUDY    70  64  81 S10       29.80F
6HR MIN TEMP:  63; 6HR MAX TEMP:  70; 6HR PCP:  0.13;

WATERFRONT PRK   N/A     68 N/A N/A S12         N/A
MOUNT PLEASANT CLOUDY    70  64  83 MISG      29.80F FOG
PINOPOLIS      NOT AVBL
MONCKS CORNER  CLOUDY    70  64  83 S12       29.80F
SUMMERVILLE    CLOUDY    70  66  88 S7        29.80F
BEAUFORT MCAS  CLOUDY    70  66  87 S12G30    29.79F
6HR MIN TEMP:  67; 6HR MAX TEMP:  71; 6HR PCP:  0.71;

BEAUFORT ARPT  MOCLDY    68  68 100 S12G21    29.78R FOG
HILTON HEAD IS PTSUNNY   70  70 100 S10G18    29.82S
WALTERBORO     CLOUDY    70  64  83 S12G18    29.80S
ALLENDALE      CLOUDY    72  66  83 S9        29.76F

...SOUTHERN MIDLANDS AND PEE DEE...

CITY           SKY/WX    TMP DP  RH WIND       PRES   REMARKS
GEORGETOWN     NOT AVBL
KINGSTREE      NOT AVBL
ORANGEBURG     CLOUDY    69  63  81 S12       29.77F
6HR MIN TEMP:  58; 6HR MAX TEMP:  69; 6HR PCP:  0.15;

BARNWELL       MOCLDY    72  66  83 S10G16    29.76F
AIKEN          CLOUDY    68  63  83 S13       29.78F
MANNING        CLOUDY    68  46  45 S8        29.79S
COLUMBIA       CLOUDY    68  62  81 S12       29.74F
6HR MIN TEMP:  57; 6HR MAX TEMP:  68; 6HR PCP:  0.20;

SUMTER         CLOUDY    68  62  82 S13G18    29.75F
6HR MIN TEMP:  57; 6HR MAX TEMP:  68; 6HR PCP:  0.19;

FLORENCE       CLOUDY    65  59  81 S8        29.79F
6HR MIN TEMP:  57; 6HR MAX TEMP:  66; 6HR PCP:  0.16;

MYRTLE BEACH   PTSUNNY   68  61  77 SE10      29.84F
N MYRTLE BEACH CLOUDY    64  57  78 SE7       29.82F
6HR MIN TEMP:  62; 6HR MAX TEMP:  66; 6HR PCP:  0.03;


$$

GAZ063-065-086>088-099>101-113>116-118-119-134>141-150-251900-
...SOUTHEAST GEORGIA...

CITY           SKY/WX    TMP DP  RH WIND       PRES   REMARKS
SAVANNAH ARPT  CLOUDY    72  68  87 SE10      29.79F
6HR MIN TEMP:  66; 6HR MAX TEMP:  72; 6HR PCP:  1.80;

HUNTER AAF     CLOUDY    73  72  99 S6        29.77F
6HR MIN TEMP:  68; 6HR MAX TEMP:  73; 6HR PCP:  1.47;

FORT STEWART   CLOUDY    70  68  92 S3        29.78F
6HR MIN TEMP:  62; 6HR MAX TEMP:  70; 6HR PCP:  1.08;

STATESBORO       N/A     72  72 100 S9        29.78F
SYLVANIA       CLOUDY    71  68  89 SW6       29.79F
CLAXTON        FAIR      72  68  88 S5        29.78F

...CSRA...CENTRAL AND FAR SOUTHEAST GEORGIA...

CITY           SKY/WX    TMP DP  RH WIND       PRES   REMARKS
THOMSON        CLOUDY    72  68  88 SW5       29.79F
AUGUSTA-BUSH   CLOUDY    72  66  81 SW10      29.74F
6HR MIN TEMP:  56; 6HR MAX TEMP:  72; 6HR PCP:  0.58;

AUGUSTA-DANIEL CLOUDY    69  64  84 S8        29.75F
SWAINSBORO     NOT AVBL
VIDALIA        CLOUDY    73  70  88 SW5       29.78F
EASTMAN        CLOUDY    76  75  96 W9        29.79F
HAZLEHURST     MOCLDY    80  72  76 SW7       29.76F
ALMA           CLOUDY    80  69  69 SW18G25   29.78F
6HR MIN TEMP:  63; 6HR MAX TEMP:  80; 6HR PCP: TRACE;

WAYCROSS       CLOUDY    82  74  77 W15G23    29.80F
JESUP          CLOUDY    77  73  88 S5        29.80F
BAXLEY         CLOUDY    79  70  73 SW8G16    29.78F
BRUNSWICK      CLOUDY    77  70  78 SW12      29.81F
SAINT SIMONS   CLOUDY    75  70  84 SW10      29.81F
6HR MIN TEMP:  71; 6HR MAX TEMP:  75; 6HR PCP:  0.04;


$$

SCZ027-028-034-036>038-045-046-048>050-GAZ119-141-251900-
...LAKE AND SUPPLEMENTAL COASTAL OBSERVATIONS...

STATION/POSITION TIME  TEMP    WIND        PRES    WAVE   SWELL
                       AIR SEA DIR/SP/G            HT/PER HT/PER/DIR
                 (UTC) (F)     (DEG/KT/KT) (MB)    (FT/S) (FT/S/D)
UPR LAKE MARION  NOT AVBL
WINYAH BAY       1645   70     160/  9     1010.0
LAKE MURRAY      1700   65     170/  9/ 11 1008.1F
ACE BASIN NERRS  NOT AVBL
FORT PULASKI     1700   67 70  100/ 11/ 15 1011.2F
SAPELO ISLAND    1700   72     200/  8     1011.0S

$$

ANZ835-935-AMZ111-154-330-350-352-354-370-450-454-472-251900-
...C-MAN AND BUOY OBSERVATIONS...

STATION/POSITION TIME  TEMP    WIND        PRES    WAVE   SWELL
                       AIR SEA DIR/SP/G            HT/PER HT/PER/DIR
                 (UTC) (F)     (DEG/KT/KT) (MB)    (FT/S) (FT/S/D)
BUOY 41004       1750   69 72  170/ 31/ 39 1006.5F   3/ 4   2/10
BUOY 41008       1750   71 69  190/ 16/ 19 1010.0F   3/ 4   2/100/ 8
FOLLY BEACH CMAN 1800   68     210/ 16/ 19 1008.6R
CAPERS NEARSHORE 1708   68     170/ 17/ 23   N/A
FRIPP NEARSHORE  1700   67     160/ 16/ 17 1011.5F


STATION/POSITION TIME  TEMP    WIND        PRES    WAVE   SWELL
                       AIR SEA DIR/SP/G            HT/PER HT/PER/DIR
                 (UTC) (F)     (DEG/KT/KT) (MB)    (FT/S) (FT/S/D)
5E ST. MARYS GA  1721      70                N/A     3/13   2/ 80/13
FRYING PAN BUOY  1750   70 71  200/ 14/ 17 1011.7F   3/ 9   2/ 80/ 9
BUOY 41025       1750   63 72  310/ 10/ 12 1011.7F   3/10   3/ 50/10
CAPE LOOKOUT NC  1800   62     240/ 13/ 17 1011.7F
BUOY 41002       1750   67 71  210/ 14/ 19 1014.9F   5/ 9   5/ 20/ 9
BUOY 41010       1720   78 80  190/ 12/ 14 1014.1F
ST AUGUSTINE FL  1800   84 70  260/ 12/ 14 1011.5F


$$



USA.gov is the U.S. government's official web portal to all federal, state and local government web resources and services.